Previsão horária em Bolshie Gridyushki

Hoje, 5 Março, Sexta-feira

Tempo Temperatura Precipitação Vento Pressão Humidade
00:00 -5°C° 0 mm 3 m/s 743 mmHg 73%
01:00 -4°C° 0 mm 2 m/s 744 mmHg 72%
02:00 -4°C° 0 mm 2 m/s 744 mmHg 70%
03:00 -5°C° 0 mm 3 m/s 744 mmHg 70%
04:00 -5°C° 0 mm 3 m/s 744 mmHg 71%
05:00 -5°C° 0 mm 3 m/s 744 mmHg 71%
06:00 -5°C° 0 mm 4 m/s 744 mmHg 71%
07:00 -5°C° 0 mm 4 m/s 744 mmHg 70%
08:00 -6°C° 0 mm 5 m/s 744 mmHg 70%
09:00 -5°C° 0 mm 5 m/s 745 mmHg 65%
10:00 -5°C° 0 mm 5 m/s 745 mmHg 61%
11:00 -4°C° 0 mm 6 m/s 745 mmHg 56%
12:00 -4°C° 0.1 mm 6 m/s 746 mmHg 50%
13:00 -4°C° 0.1 mm 6 m/s 746 mmHg 45%
14:00 -4°C° 0.1 mm 6 m/s 746 mmHg 39%
15:00 -4°C° 0 mm 5 m/s 747 mmHg 38%
16:00 -4°C° 0 mm 5 m/s 747 mmHg 37%
17:00 -4°C° 0 mm 4 m/s 748 mmHg 36%
18:00 -4°C° 0 mm 3 m/s 748 mmHg 39%
19:00 -4°C° 0 mm 2 m/s 749 mmHg 42%
20:00 -3°C° 0 mm 1 m/s 749 mmHg 45%
21:00 -2°C° 0 mm 1 m/s 749 mmHg 47%
22:00 -2°C° 0 mm 1 m/s 749 mmHg 49%
23:00 -2°C° 0 mm 1 m/s 750 mmHg 51%

Amanhã, 6 Março, Sábado

Tempo Temperatura Precipitação Vento Pressão Humidade
00:00 -3°C° 0 mm 1 m/s 750 mmHg 60%
01:00 -3°C° 0 mm 1 m/s 750 mmHg 68%
02:00 -3°C° 0 mm 1 m/s 750 mmHg 77%
03:00 -6°C° 0 mm 2 m/s 750 mmHg 79%
04:00 -6°C° 0 mm 2 m/s 750 mmHg 81%
05:00 -6°C° 0 mm 2 m/s 750 mmHg 83%
06:00 -6°C° 0 mm 2 m/s 751 mmHg 78%
07:00 -7°C° 0 mm 3 m/s 751 mmHg 73%
08:00 -7°C° 0 mm 3 m/s 752 mmHg 67%
09:00 -6°C° 0 mm 3 m/s 752 mmHg 61%
10:00 -5°C° 0 mm 4 m/s 752 mmHg 55%
11:00 -4°C° 0 mm 4 m/s 752 mmHg 48%
12:00 -3°C° 0 mm 4 m/s 752 mmHg 46%
13:00 -4°C° 0 mm 5 m/s 751 mmHg 44%
14:00 -2°C° 0 mm 5 m/s 751 mmHg 42%
15:00 -4°C° 0 mm 5 m/s 751 mmHg 42%
16:00 -4°C° 0 mm 5 m/s 750 mmHg 43%
17:00 -4°C° 0 mm 5 m/s 749 mmHg 43%
18:00 -4°C° 0 mm 6 m/s 749 mmHg 48%
19:00 -4°C° 0 mm 6 m/s 748 mmHg 53%
20:00 -6°C° 0 mm 7 m/s 747 mmHg 59%
21:00 -4°C° 0 mm 7 m/s 746 mmHg 59%
22:00 -5°C° 0 mm 8 m/s 745 mmHg 59%
23:00 -5°C° 0 mm 8 m/s 744 mmHg 60%

Depois de amanhã, 7 Março, Domingo

Tempo Temperatura Precipitação Vento Pressão Humidade
00:00 -5°C° 0 mm 8 m/s 743 mmHg 63%
01:00 -5°C° 0 mm 9 m/s 742 mmHg 67%
02:00 -5°C° 0 mm 9 m/s 740 mmHg 71%
03:00 -4°C° 0.3 mm 10 m/s 740 mmHg 79%
04:00 -4°C° 0.3 mm 10 m/s 739 mmHg 87%
05:00 -4°C° 0.3 mm 10 m/s 738 mmHg 95%
06:00 -5°C° 0.6 mm 10 m/s 738 mmHg 86%
07:00 -5°C° 0.6 mm 9 m/s 738 mmHg 76%
08:00 -6°C° 0.6 mm 9 m/s 738 mmHg 67%
09:00 -6°C° 0 mm 9 m/s 739 mmHg 58%
10:00 -6°C° 0 mm 9 m/s 739 mmHg 49%
11:00 -6°C° 0 mm 8 m/s 740 mmHg 39%
12:00 -5°C° 0 mm 9 m/s 740 mmHg 43%
13:00 -5°C° 0 mm 9 m/s 739 mmHg 47%
14:00 -5°C° 0 mm 10 m/s 739 mmHg 50%
15:00 -5°C° 0.1 mm 9 m/s 739 mmHg 52%
16:00 -5°C° 0.1 mm 9 m/s 739 mmHg 54%
17:00 -5°C° 0.1 mm 8 m/s 738 mmHg 56%
18:00 -6°C° 0 mm 8 m/s 738 mmHg 58%
19:00 -6°C° 0 mm 8 m/s 738 mmHg 60%
20:00 -7°C° 0 mm 7 m/s 738 mmHg 61%
21:00 -7°C° 0 mm 7 m/s 738 mmHg 66%
22:00 -7°C° 0 mm 7 m/s 738 mmHg 70%
23:00 -7°C° 0 mm 8 m/s 738 mmHg 75%

8 Março, Segunda-feira

Tempo Temperatura Precipitação Vento Pressão Humidade
00:00 -8°C° 0.1 mm 7 m/s 739 mmHg 75%
01:00 -8°C° 0.1 mm 6 m/s 740 mmHg 74%
02:00 -8°C° 0.1 mm 5 m/s 740 mmHg 74%
03:00 -8°C° 0 mm 4 m/s 741 mmHg 75%
04:00 -9°C° 0 mm 4 m/s 741 mmHg 76%
05:00 -9°C° 0 mm 4 m/s 741 mmHg 77%
06:00 -9°C° 0 mm 4 m/s 742 mmHg 73%
07:00 -9°C° 0 mm 4 m/s 742 mmHg 70%
08:00 -9°C° 0 mm 4 m/s 742 mmHg 67%
09:00 -9°C° 0 mm 4 m/s 743 mmHg 65%
10:00 -8°C° 0 mm 4 m/s 743 mmHg 63%
11:00 -7°C° 0 mm 4 m/s 744 mmHg 61%
12:00 -7°C° 0 mm 4 m/s 744 mmHg 61%
13:00 -7°C° 0 mm 4 m/s 744 mmHg 61%
14:00 -7°C° 0 mm 4 m/s 745 mmHg 60%
15:00 -7°C° 0 mm 4 m/s 745 mmHg 62%
16:00 -7°C° 0 mm 5 m/s 745 mmHg 63%
17:00 -8°C° 0 mm 5 m/s 745 mmHg 65%
18:00 -8°C° 0 mm 5 m/s 746 mmHg 66%
19:00 -10°C° 0 mm 5 m/s 746 mmHg 67%
20:00 -11°C° 0 mm 5 m/s 747 mmHg 68%
21:00 -11°C° 0 mm 5 m/s 747 mmHg 69%
22:00 -12°C° 0 mm 5 m/s 748 mmHg 70%
23:00 -12°C° 0 mm 4 m/s 748 mmHg 71%

9 Março, Terça-feira

Tempo Temperatura Precipitação Vento Pressão Humidade
00:00 -12°C° 0 mm 4 m/s 749 mmHg 73%
01:00 -12°C° 0 mm 4 m/s 749 mmHg 75%
02:00 -14°C° 0 mm 4 m/s 750 mmHg 77%
03:00 -14°C° 0 mm 4 m/s 750 mmHg 77%
04:00 -14°C° 0 mm 4 m/s 750 mmHg 77%
05:00 -14°C° 0 mm 3 m/s 751 mmHg 78%
06:00 -14°C° 0 mm 3 m/s 751 mmHg 76%
07:00 -14°C° 0 mm 3 m/s 752 mmHg 75%
08:00 -14°C° 0 mm 3 m/s 752 mmHg 73%
09:00 -13°C° 0 mm 3 m/s 752 mmHg 66%
10:00 -10°C° 0 mm 2 m/s 753 mmHg 59%
11:00 -9°C° 0 mm 2 m/s 753 mmHg 51%
12:00 -8°C° 0 mm 2 m/s 753 mmHg 48%
13:00 -7°C° 0 mm 2 m/s 753 mmHg 44%
14:00 -6°C° 0 mm 2 m/s 753 mmHg 41%
15:00 -6°C° 0 mm 2 m/s 753 mmHg 43%
16:00 -7°C° 0 mm 3 m/s 753 mmHg 45%
17:00 -7°C° 0 mm 3 m/s 752 mmHg 47%
18:00 -7°C° 0 mm 3 m/s 753 mmHg 50%
19:00 -7°C° 0 mm 3 m/s 753 mmHg 53%
20:00 -7°C° 0 mm 3 m/s 753 mmHg 56%
21:00 -8°C° 0 mm 4 m/s 753 mmHg 56%
22:00 -8°C° 0 mm 4 m/s 753 mmHg 56%
23:00 -8°C° 0 mm 4 m/s 753 mmHg 56%

10 Março, Quarta-feira

Tempo Temperatura Precipitação Vento Pressão Humidade
00:00 -8°C° 0 mm 4 m/s 752 mmHg 55%
01:00 -8°C° 0 mm 4 m/s 752 mmHg 55%
02:00 -9°C° 0 mm 4 m/s 752 mmHg 54%
03:00 -9°C° 0 mm 4 m/s 752 mmHg 55%
04:00 -9°C° 0 mm 4 m/s 751 mmHg 55%
05:00 -9°C° 0 mm 4 m/s 751 mmHg 56%
06:00 -10°C° 0 mm 5 m/s 751 mmHg 57%
07:00 -8°C° 0 mm 5 m/s 751 mmHg 58%
08:00 -9°C° 0 mm 6 m/s 751 mmHg 59%
09:00 -8°C° 0 mm 6 m/s 751 mmHg 57%
10:00 -6°C° 0 mm 6 m/s 751 mmHg 55%
11:00 -5°C° 0 mm 6 m/s 751 mmHg 53%
12:00 -5°C° 0 mm 6 m/s 750 mmHg 52%
13:00 -4°C° 0 mm 6 m/s 750 mmHg 51%
14:00 -2°C° 0 mm 5 m/s 750 mmHg 50%
15:00 -4°C° 0 mm 5 m/s 749 mmHg 52%
16:00 -3°C° 0 mm 4 m/s 749 mmHg 53%
17:00 -3°C° 0 mm 4 m/s 749 mmHg 55%
18:00 -3°C° 0 mm 4 m/s 749 mmHg 57%
19:00 -4°C° 0 mm 3 m/s 748 mmHg 60%
20:00 -4°C° 0 mm 3 m/s 748 mmHg 62%
21:00 -5°C° 0 mm 3 m/s 748 mmHg 63%
22:00 -5°C° 0 mm 3 m/s 748 mmHg 63%
23:00 -5°C° 0 mm 3 m/s 748 mmHg 64%
Mostrar mais